Regional Weather Roundup
Issued by NWS Cleveland, OH

Home | Current Version | Previous Version | Graphics & Text | Print | Product List | Glossary On
Versions: 1 2 3 4 5 6 7 8 9 10 11 12 13 14 15 16 17 18 19 20 21 22 23 24 25 26 27 28 29 30 31 32 33 34 35 36 37 38 39 40 41 42 43 44 45 46 47 48 49 50
000
ASUS41 KCLE 122010
RWRCLE
OHIO REGIONAL WEATHER ROUNDUP
NATIONAL WEATHER SERVICE WILMINGTON, OH
300 PM EST TUE DEC 12 2017

NOTE: "FAIR" INDICATES FEW OR NO CLOUDS BELOW 12,000 FEET WITH NO
SIGNIFICANT WEATHER AND/OR OBSTRUCTIONS TO VISIBILITY.

OHZ001>008-015>018-024>027-034-035-043-044-122100-
   NORTHWEST OHIO

CITY           SKY/WX    TMP DP  RH WIND       PRES   REMARKS
DEFIANCE       NOT AVBL
FINDLAY        CLOUDY    24   6  46 NW13G25   29.87R WCI  12
TOLEDO EXPRESS FAIR      21   6  52 NW18G24   29.88R WCI   6
TOLEDO EXEC    PTSUNNY   22   8  55 NW17G23   29.89R WCI   8
LIMA           CLOUDY    23  10  57 NW16G33   29.88R WCI  10
$$

OHZ009>014-019>023-028>033-038-089-122100-
   NORTHEAST OHIO

CITY           SKY/WX    TMP DP  RH WIND       PRES   REMARKS
CLE-HOPKINS    CLOUDY    21   6  52 NW21G29   29.83S WCI   5
CLE-LAKEFRONT  LGT SNOW  21   8  57 W29G41    29.81R WCI   3
CUY CO. ARPT   CLOUDY    21   7  53 NW17G29   29.79S WCI   7
LORAIN-ELYRIA  LGT SNOW  19   8  62 N18G28    29.83S WCI   4
ASHTABULA      LGT SNOW  18   5  57 NW17G26   29.75S WCI   3
AKRON-CANTON   FLURRIES  20   9  62 NW22      29.77R WCI   3
WOOSTER        LGT SNOW  19   8  62 NW16G26   29.81R WCI   4
MANSFIELD      CLOUDY    20   9  62 W13G21    29.81R WCI   7
YOUNGSTOWN     CLOUDY    20   5  52 W13G30    29.73R WCI   7
$$

OHZ042-051>053-060>062-070>072-077>081-122100-
  SOUTHWEST OHIO

CITY           SKY/WX    TMP DP  RH WIND       PRES   REMARKS
CINC-COVINGTON PTSUNNY   27  12  53 NW20G29   29.94S WCI  13
CINC-LUNKEN    PTSUNNY   30  11  45 NW14G28   29.98R WCI  19
HAMILTON       CLOUDY    29  12  49 W17G26    29.97R WCI  17
DAYTON         FAIR      23  18  81 W20G25    29.91F WCI   8
WRIGHT-PAT AFB CLOUDY    23  19  86 W9        29.91S WCI  13
DAYTON GENERAL PTSUNNY   25  12  58 NW14G26   29.92S WCI  13
WILMINGTON     CLOUDY    25  16  68 NW16G25   29.89R WCI  12
$$

OHZ036-037-039>041-045>050-054>059-063>069-073>076-082>088-122100-
  CENTRAL AND SOUTHEAST OHIO

CITY           SKY/WX    TMP DP  RH WIND       PRES   REMARKS
COLUMBUS       CLOUDY    26   8  46 NW21G28   29.86S WCI  12
OSU AIRPORT    CLOUDY    26   9  48 NW17      29.86S WCI  13
BOLTON FIELD   CLOUDY    25   7  46 NW15G28   29.88R WCI  12
RICKENBACK AFB PTSUNNY   26   8  47 NW18G26   29.88R WCI  12
NEWARK         PTSUNNY   25   7  46 NW20G28   29.84S WCI  11
MARION         NOT AVBL
LANCASTER      CLOUDY    26  10  50 NW15      29.86S WCI  14
ZANESVILLE     PTSUNNY   24   6  46 NW15G24   29.83R WCI  11
NEW PHILLY     CLOUDY    22   6  50 NW16G24   29.81R WCI   8
$$




USA.gov is the U.S. government's official web portal to all federal, state and local government web resources and services.